Regional Weather Roundup
Issued by NWS

Home | Current Version | Previous Version | Graphics & Text | Print | Product List | Glossary On
Versions: 1 2 3 4 5 6 7 8 9 10 11 12 13 14 15 16 17 18 19 20 21 22 23 24 25 26 27 28 29 30 31 32 33 34 35 36 37 38 39 40 41 42 43 44 45 46 47 48 49 50
000
ASUS43 KMPX 290110
RWRMN
WEATHER ROUNDUP FOR MINNESOTA
NATIONAL WEATHER SERVICE TWIN CITIES/CHANHASSEN MN
800 PM CDT SUN AUG 28 2016


NOTE: "FAIR" INDICATES FEW OR NO CLOUDS BELOW 12,000 FEET WITH NO
SIGNIFICANT WEATHER AND/OR OBSTRUCTIONS TO VISIBILITY. N/A MEANS
CURRENT SKY AND/OR WEATHER CONDITIONS ARE NOT AVAILABLE.

MNZ060>063-068>070-290200-
   Twin Cities Metro

CITY           SKY/WX    TMP DP  RH WIND       PRES   REMARKS
TWIN CITIES    PTCLDY    79  68  69 SE7       30.10S
ST PAUL        CLEAR     77  68  73 SE5       30.10S
CRYSTAL        CLEAR     77  66  68 SE6       30.08S
BLAINE         CLEAR     81  68  65 SE7       30.10R
LAKEVILLE      CLEAR     73  70  88 SE5       30.11S
EDEN PRAIRIE   CLEAR     78  68  71 SE8       30.09R
LAKEVILLE      CLEAR     73  70  88 SE5       30.11S
SOUTH ST PAUL  CLEAR     78  67  69 SE5       30.10S
LAKE ELMO      FAIR      75  70  83 SE5       30.12S
$$
MNZ001>005-007-008-013>017-022>024-027-028-290200-
   Northwest Minnesota

CITY           SKY/WX    TMP DP  RH WIND       PRES   REMARKS
BEMIDJI        CLOUDY    74  67  80 SE8       30.02R
HALLOCK        CLEAR     75  66  73 E9        29.93F
ROSEAU         CLOUDY    70  64  83 E15G22    30.03R
WARROAD        TSTM      66  63  88 SW15      30.08R
THIEF RVR FALL CLOUDY    76  68  76 E9        29.96F
CROOKSTON      CLOUDY    81  70  69 SE9       29.93F THUNDER
FOSSTON        PTCLDY    73  66  78 SE7       29.99S
DETROIT LAKES  CLOUDY    79  70  73 S10       30.00S
MOORHEAD       CLEAR     82  72  69 S12       29.93S
PARK RAPIDS    PTCLDY    76  69  79 SE12      30.03S
MAHNOMEN       MOCLDY    77  70  80 SE8       29.97S
$$
MNZ006-009>011-018-025>026-290200-
   North Central Minnesota

CITY           SKY/WX    TMP DP  RH WIND       PRES   REMARKS
BAUDETTE       LGT RAIN  67  65  93 SE12      30.02S FOG
FLAG ISLAND    CLOUDY    70  64  83 CALM      30.02R
INTL FALLS     CLOUDY    68  63  84 SE3       30.10R
WASKISH        PTCLDY    72  64  78 E8        30.04F
BIG FORK       PTCLDY    70  63  78 CALM      30.08R
LONGVILLE      MOCLDY    72  68  88 SE7       30.06S
GRAND RAPIDS   PTCLDY    71  66  84 SE8       30.10F
CRANE LAKE     CLEAR     63  61  94 CALM      30.12S
ORR            MOCLDY    66  61  82 CALM      30.08R
COOK           PTCLDY    68  63  83 CALM      30.12R
WALKER         MOCLDY    73  68  83 SE8       30.04R
$$
MNZ012-019>021-037-290200-
   Northeast Minnesota

CITY           SKY/WX    TMP DP  RH WIND       PRES   REMARKS
DULUTH         PTCLDY    65  62  90 E9        30.15S
ELY            CLEAR     66  57  72 S3        30.14S
HIBBING        PTCLDY    67  63  87 SE7       30.11F
EVELETH        CLEAR     68  61  78 SE3       30.14S
DULUTH HARBOR  PTCLDY    66  64  94 E12       30.15S THUNDER
TWO HARBORS    CLEAR     66  61  82 E3        30.14S
SILVER BAY     CLEAR     63  61  94 NE3       30.15R
GRAND MARAIS     N/A     62  59  90 NE3       30.16S
G MARAIS ARPRT CLEAR     57  52  82 CALM      30.20S
$$
MNZ029>031-032-039>041-046>048-054>057-064-290200-
   West Central Minnesota

CITY           SKY/WX    TMP DP  RH WIND       PRES   REMARKS
FERGUS FALLS   CLEAR     81  72  74 S12       29.98S
WHEATON        CLEAR     82  73  74 SE9       29.99R
MORRIS         CLEAR     81  73  78 SE8       30.00R
ALEXANDRIA     CLEAR     78  70  76 SE14      30.05R
ELBOW LAKE     FAIR      78  74  85 E10       30.00R
WADENA         PTCLDY    77  70  78 SE7       30.03S
GLENWOOD       CLEAR     77  72  83 SE10      30.06R
APPLETON       CLEAR     81  72  74 SE8       30.00R
BENSON         CLEAR     81  72  74 S8        30.02R
ORTONVILLE     CLEAR     81  72  74 SE6       29.99R
MADISON        CLEAR     79  72  78 SE7       30.01R
WILLMAR        FAIR      79  72  78 SE8       30.06R
$$
MNZ033>034-036-042>043-049>051-058-059-290200-
   Central Minnesota

CITY           SKY/WX    TMP DP  RH WIND       PRES   REMARKS
ST CLOUD       CLEAR     75  71  87 SE6       30.07R
SAUK CENTRE    FAIR      76  69  79 SE8       30.06S
PAYNESVILLE    CLEAR     78  68  72 SE7       30.07R
AITKIN         CLEAR     75  64  69 SE8       30.08S
PINE RIVER     PTCLDY    72  68  88 SE10      30.08F
BRAINERD       CLEAR     73  69  87 SE9       30.07S
STAPLES        CLEAR     75  70  83 SE5       30.05R
LONG PRAIRIE   FAIR      73  68  83 E7        30.07R
LITTLE FALLS   CLEAR     75  68  78 SE8       30.07S
LITCHFIELD     CLEAR     79  72  78 SE6       30.08S
BUFFALO        CLEAR     77  68  74 SE5       30.09S
MAPLE LAKE     CLEAR     77  72  84 SE3       30.09S
HUTCHINSON     CLEAR     77  71  84 SE8       30.09R
$$
MNZ037-044-045-052-053-290200-
   East Central Minnesota

CITY           SKY/WX    TMP DP  RH WIND       PRES   REMARKS
PRINCETON      CLEAR     79  72  78 CALM      30.09S
MORA           MOCLDY    72  66  83 SE5       30.12S
CAMBRIDGE      CLEAR     79  66  65 CALM      30.09R
RUSH CITY      CLEAR     73  69  85 CALM      30.11S
MOOSE LAKE     MOCLDY    72  64  78 SE3       30.11S
HINCKLEY       CLOUDY    72  70  94 E6        30.12S
CLOQUET        CLOUDY    66  61  82 E7        30.14S
MCGREGOR       MOCLDY    72  66  83 SE8       30.11S
$$
MNZ071>073-080-081-089-090-097-098-290200-
   Southwest Minnesota

CITY           SKY/WX    TMP DP  RH WIND       PRES   REMARKS
MONTEVIDEO     CLEAR     81  73  78 S9        30.04R
GRANITE FALLS  CLEAR     82  74  76 SE10      30.04R
CANBY          CLEAR     82  73  74 SE8       30.02R
MARSHALL       CLEAR     81  74  79 S9        30.04R
REDWOOD FALLS  CLEAR     80  69  69 SE13      30.05R
OLIVIA         CLEAR     77  70  78 SE7       30.06R
PIPESTONE      CLEAR     81  72  74 S9        30.07R
WINDOM         CLEAR     79  68  69 SE7       30.10R
WORTHINGTON    CLOUDY    78  73  84 SE9       30.10R
JACKSON          N/A     79  68  69 SE7       30.11S
TRACY          CLEAR     80  73  80 S7        30.06R
SLAYTON        CLEAR     77  72  83 SE9       30.10R
$$
MNZ065>067-074>077-082>085-091>093-290200-
   South Central Minnesota

CITY           SKY/WX    TMP DP  RH WIND       PRES   REMARKS
MANKATO        CLEAR     77  70  78 SE8       30.10R
NEW ULM        CLEAR     77  70  78 S9        30.08R
ST JAMES       CLEAR     72  64  78 SE3       30.10S
GLENCOE        CLEAR     78  73  84 SE6       30.08S
FARIBAULT      CLEAR     75  70  83 SE6       30.12S
OWATONNA       CLEAR     77  68  73 S5        30.13R
WASECA         CLEAR     72  68  88 SE6       30.13R
ALBERT LEA     CLEAR     75  72  88 SE5       30.13S
$$
MNZ078>079-086>088-094>096-290200-
   Southeast Minnesota

CITY           SKY/WX    TMP DP  RH WIND       PRES   REMARKS
ROCHESTER      CLEAR     74  71  91 SE5       30.16R
RED WING       CLEAR     77  70  78 SE7       30.11S
STANTON        CLEAR     79  68  69 SE5       30.11R
DODGE CENTER   CLEAR     73  66  78 S6        30.15R
WINONA         PTCLDY    73  68  83 SE5       30.15R
AUSTIN         CLEAR     73  70  88 SE3       30.14R
PRESTON        CLEAR     75  69  79 SE5       30.17R
$$
ABBREVIATIONS USED IN REMARKS
   TC - TEMPERATURES IN CELSIUS
  WCI - WIND CHILL INDEX
   HX - HEAT INDEX
  VSB - VISIBILITY
$$



USA.gov is the U.S. government's official web portal to all federal, state and local government web resources and services.